Year,Month,Day,Hour,Minute,Value (Times are PST for windgust in km/hr)
2018,11,27,00,00,4.80
2018,11,27,00,01,3.20
2018,11,27,00,02,4.80
2018,11,27,00,03,3.20
2018,11,27,00,04,3.20
2018,11,27,00,05,3.20
2018,11,27,00,06,4.80
2018,11,27,00,07,4.80
2018,11,27,00,08,3.20
2018,11,27,00,09,3.20
2018,11,27,00,10,3.20
2018,11,27,00,11,4.80
2018,11,27,00,12,3.20
2018,11,27,00,13,3.20
2018,11,27,00,14,4.80
2018,11,27,00,15,3.20
2018,11,27,00,16,8.10
2018,11,27,00,17,6.40
2018,11,27,00,18,4.80
2018,11,27,00,19,9.60
2018,11,27,00,20,4.80
2018,11,27,00,21,6.40
2018,11,27,00,22,6.40
2018,11,27,00,23,6.40
2018,11,27,00,24,6.40
2018,11,27,00,25,6.40
2018,11,27,00,26,4.80
2018,11,27,00,27,3.20
2018,11,27,00,28,4.80
2018,11,27,00,29,14.50
2018,11,27,00,30,8.10
2018,11,27,00,31,6.40
2018,11,27,00,32,4.80
2018,11,27,00,33,6.40
2018,11,27,00,34,4.80
2018,11,27,00,35,8.10
2018,11,27,00,36,4.80
2018,11,27,00,37,6.40
2018,11,27,00,38,6.40
2018,11,27,00,39,4.80
2018,11,27,00,40,4.80
2018,11,27,00,41,4.80
2018,11,27,00,42,6.40
2018,11,27,00,43,4.80
2018,11,27,00,44,6.40
2018,11,27,00,45,4.80
2018,11,27,00,46,4.80
2018,11,27,00,47,9.60
2018,11,27,00,48,9.60
2018,11,27,00,49,4.80
2018,11,27,00,50,11.30
2018,11,27,00,51,6.40
2018,11,27,00,52,11.30
2018,11,27,00,53,4.80
2018,11,27,00,54,6.40
2018,11,27,00,55,3.20
2018,11,27,00,56,4.80
2018,11,27,00,57,8.10
2018,11,27,00,58,4.80
2018,11,27,00,59,6.40
2018,11,27,01,00,6.40
2018,11,27,01,01,6.40
2018,11,27,01,02,8.10
2018,11,27,01,03,6.40
2018,11,27,01,04,12.90
2018,11,27,01,05,16.10
2018,11,27,01,06,12.90
2018,11,27,01,07,3.20
2018,11,27,01,08,4.80
2018,11,27,01,09,6.40
2018,11,27,01,10,6.40
2018,11,27,01,11,3.20
2018,11,27,01,12,3.20
2018,11,27,01,13,6.40
2018,11,27,01,14,3.20
2018,11,27,01,15,4.80
2018,11,27,01,16,3.20
2018,11,27,01,17,3.20
2018,11,27,01,18,4.80
2018,11,27,01,19,6.40
2018,11,27,01,20,4.80
2018,11,27,01,21,4.80
2018,11,27,01,22,6.40
2018,11,27,01,23,6.40
2018,11,27,01,24,6.40
2018,11,27,01,25,4.80
2018,11,27,01,26,3.20
2018,11,27,01,27,4.80
2018,11,27,01,28,4.80
2018,11,27,01,29,6.40
2018,11,27,01,30,4.80
2018,11,27,01,31,4.80
2018,11,27,01,32,4.80
2018,11,27,01,33,4.80
2018,11,27,01,34,4.80
2018,11,27,01,35,3.20
2018,11,27,01,36,4.80
2018,11,27,01,37,4.80
2018,11,27,01,38,3.20
2018,11,27,01,39,3.20
2018,11,27,01,40,4.80
2018,11,27,01,41,4.80
2018,11,27,01,42,4.80
2018,11,27,01,43,6.40
2018,11,27,01,44,4.80
2018,11,27,01,45,4.80
2018,11,27,01,46,4.80
2018,11,27,01,47,6.40
2018,11,27,01,48,3.20
2018,11,27,01,49,6.40
2018,11,27,01,50,4.80
2018,11,27,01,51,4.80
2018,11,27,01,52,3.20
2018,11,27,01,53,4.80
2018,11,27,01,54,6.40
2018,11,27,01,55,6.40
2018,11,27,01,56,3.20
2018,11,27,01,57,4.80
2018,11,27,01,58,4.80
2018,11,27,01,59,4.80
2018,11,27,02,00,4.80
2018,11,27,02,01,4.80
2018,11,27,02,02,4.80
2018,11,27,02,03,3.20
2018,11,27,02,04,4.80
2018,11,27,02,05,6.40
2018,11,27,02,06,3.20
2018,11,27,02,07,6.40
2018,11,27,02,08,6.40
2018,11,27,02,09,4.80
2018,11,27,02,10,6.40
2018,11,27,02,11,4.80
2018,11,27,02,12,4.80
2018,11,27,02,13,4.80
2018,11,27,02,14,8.10
2018,11,27,02,15,6.40
2018,11,27,02,16,4.80
2018,11,27,02,17,4.80
2018,11,27,02,18,3.20
2018,11,27,02,19,4.80
2018,11,27,02,20,3.20
2018,11,27,02,21,4.80
2018,11,27,02,22,3.20
2018,11,27,02,23,4.80
2018,11,27,02,24,4.80
2018,11,27,02,25,4.80
2018,11,27,02,26,4.80
2018,11,27,02,27,6.40
2018,11,27,02,28,4.80
2018,11,27,02,29,3.20
2018,11,27,02,30,3.20
2018,11,27,02,31,3.20
2018,11,27,02,32,4.80
2018,11,27,02,33,4.80
2018,11,27,02,34,6.40
2018,11,27,02,35,3.20
2018,11,27,02,36,3.20
2018,11,27,02,37,3.20
2018,11,27,02,38,4.80
2018,11,27,02,39,4.80
2018,11,27,02,40,3.20
2018,11,27,02,41,8.10
2018,11,27,02,42,3.20
2018,11,27,02,43,6.40
2018,11,27,02,44,4.80
2018,11,27,02,45,8.10
2018,11,27,02,46,3.20
2018,11,27,02,47,3.20
2018,11,27,02,48,4.80
2018,11,27,02,49,6.40
2018,11,27,02,50,4.80
2018,11,27,02,51,3.20
2018,11,27,02,52,3.20
2018,11,27,02,53,3.20
2018,11,27,02,54,4.80
2018,11,27,02,55,4.80
2018,11,27,02,56,4.80
2018,11,27,02,57,4.80
2018,11,27,02,58,6.40
2018,11,27,02,59,6.40
2018,11,27,03,00,3.20
2018,11,27,03,01,8.10
2018,11,27,03,02,3.20
2018,11,27,03,03,6.40
2018,11,27,03,04,4.80
2018,11,27,03,05,3.20
2018,11,27,03,06,6.40
2018,11,27,03,07,8.10
2018,11,27,03,08,6.40
2018,11,27,03,09,4.80
2018,11,27,03,10,4.80
2018,11,27,03,11,4.80
2018,11,27,03,12,3.20
2018,11,27,03,13,6.40
2018,11,27,03,14,6.40
2018,11,27,03,15,8.10
2018,11,27,03,16,11.30
2018,11,27,03,17,9.60
2018,11,27,03,18,6.40
2018,11,27,03,19,4.80
2018,11,27,03,20,4.80
2018,11,27,03,21,4.80
2018,11,27,03,22,4.80
2018,11,27,03,23,4.80
2018,11,27,03,24,4.80
2018,11,27,03,25,6.40
2018,11,27,03,26,4.80
2018,11,27,03,27,3.20
2018,11,27,03,28,4.80
2018,11,27,03,29,6.40
2018,11,27,03,30,4.80
2018,11,27,03,31,6.40
2018,11,27,03,32,4.80
2018,11,27,03,33,6.40
2018,11,27,03,34,9.60
2018,11,27,03,35,6.40
2018,11,27,03,36,4.80
2018,11,27,03,37,3.20
2018,11,27,03,38,4.80
2018,11,27,03,39,4.80
2018,11,27,03,40,4.80
2018,11,27,03,41,6.40
2018,11,27,03,42,6.40
2018,11,27,03,43,4.80
2018,11,27,03,44,3.20
2018,11,27,03,45,4.80
2018,11,27,03,46,3.20
2018,11,27,03,47,4.80
2018,11,27,03,48,8.10
2018,11,27,03,49,4.80
2018,11,27,03,50,6.40
2018,11,27,03,51,3.20
2018,11,27,03,52,4.80
2018,11,27,03,53,6.40
2018,11,27,03,54,6.40
2018,11,27,03,55,6.40
2018,11,27,03,56,6.40
2018,11,27,03,57,4.80
2018,11,27,03,58,4.80
2018,11,27,03,59,4.80
2018,11,27,04,00,3.20
2018,11,27,04,01,4.80
2018,11,27,04,02,3.20
2018,11,27,04,03,6.40
2018,11,27,04,04,4.80
2018,11,27,04,05,6.40
2018,11,27,04,06,4.80
2018,11,27,04,07,6.40
2018,11,27,04,08,6.40
2018,11,27,04,09,3.20
2018,11,27,04,10,3.20
2018,11,27,04,11,4.80
2018,11,27,04,12,4.80
2018,11,27,04,13,6.40
2018,11,27,04,14,6.40
2018,11,27,04,15,3.20
2018,11,27,04,16,6.40
2018,11,27,04,17,6.40
2018,11,27,04,18,8.10
2018,11,27,04,19,4.80
2018,11,27,04,20,4.80
2018,11,27,04,21,4.80
2018,11,27,04,22,4.80
2018,11,27,04,23,4.80
2018,11,27,04,24,4.80
2018,11,27,04,25,4.80
2018,11,27,04,26,4.80
2018,11,27,04,27,4.80
2018,11,27,04,28,6.40
2018,11,27,04,29,4.80
2018,11,27,04,30,6.40
2018,11,27,04,31,4.80
2018,11,27,04,32,6.40
2018,11,27,04,33,3.20
2018,11,27,04,34,4.80
2018,11,27,04,35,4.80
2018,11,27,04,36,4.80
2018,11,27,04,37,4.80
2018,11,27,04,38,4.80
2018,11,27,04,39,4.80
2018,11,27,04,40,4.80
2018,11,27,04,41,6.40
2018,11,27,04,42,6.40
2018,11,27,04,43,4.80
2018,11,27,04,44,6.40
2018,11,27,04,45,3.20
2018,11,27,04,46,4.80
2018,11,27,04,47,4.80
2018,11,27,04,48,4.80
2018,11,27,04,49,3.20
2018,11,27,04,50,4.80
2018,11,27,04,51,3.20
2018,11,27,04,52,3.20
2018,11,27,04,53,3.20
2018,11,27,04,54,3.20
2018,11,27,04,55,3.20
2018,11,27,04,56,3.20
2018,11,27,04,57,4.80
2018,11,27,04,58,3.20
2018,11,27,04,59,4.80
2018,11,27,05,00,4.80
2018,11,27,05,01,3.20
2018,11,27,05,02,3.20
2018,11,27,05,03,3.20
2018,11,27,05,04,3.20
2018,11,27,05,05,1.60
2018,11,27,05,06,1.60
2018,11,27,05,07,3.20
2018,11,27,05,08,3.20
2018,11,27,05,09,3.20
2018,11,27,05,10,4.80
2018,11,27,05,11,4.80
2018,11,27,05,12,3.20
2018,11,27,05,13,3.20
2018,11,27,05,14,6.40
2018,11,27,05,15,4.80
2018,11,27,05,16,3.20
2018,11,27,05,17,3.20
2018,11,27,05,18,1.60
2018,11,27,05,19,1.60
2018,11,27,05,20,1.60
2018,11,27,05,21,3.20
2018,11,27,05,22,3.20
2018,11,27,05,23,4.80
2018,11,27,05,24,3.20
2018,11,27,05,25,3.20
2018,11,27,05,26,4.80
2018,11,27,05,27,3.20
2018,11,27,05,28,4.80
2018,11,27,05,29,3.20
2018,11,27,05,30,3.20
2018,11,27,05,31,3.20
2018,11,27,05,32,3.20
2018,11,27,05,33,1.60
2018,11,27,05,34,1.60
2018,11,27,05,35,3.20
2018,11,27,05,36,1.60
2018,11,27,05,37,3.20
2018,11,27,05,38,1.60
2018,11,27,05,39,1.60
2018,11,27,05,40,4.80
2018,11,27,05,41,1.60
2018,11,27,05,42,1.60
2018,11,27,05,43,1.60
2018,11,27,05,44,1.60
2018,11,27,05,45,3.20
2018,11,27,05,46,3.20
2018,11,27,05,47,1.60
2018,11,27,05,57,1.60
2018,11,27,06,04,1.60
2018,11,27,06,05,1.60
2018,11,27,06,06,1.60
2018,11,27,06,39,1.60
2018,11,27,06,41,3.20
2018,11,27,06,42,3.20
2018,11,27,06,44,1.60
2018,11,27,06,45,3.20
2018,11,27,06,46,1.60
2018,11,27,06,48,1.60
2018,11,27,06,49,3.20
2018,11,27,06,51,1.60
2018,11,27,06,57,1.60
2018,11,27,06,58,3.20
2018,11,27,06,59,3.20
2018,11,27,07,00,1.60
2018,11,27,07,01,3.20
2018,11,27,07,02,4.80
2018,11,27,07,03,1.60
2018,11,27,07,09,1.60
2018,11,27,07,10,1.60
2018,11,27,07,11,1.60
2018,11,27,07,12,1.60
2018,11,27,07,13,1.60
2018,11,27,07,14,1.60
2018,11,27,07,15,4.80
2018,11,27,07,16,3.20
2018,11,27,07,17,3.20
2018,11,27,07,18,3.20
2018,11,27,07,19,1.60
2018,11,27,07,20,3.20
2018,11,27,07,21,1.60
2018,11,27,07,22,1.60
2018,11,27,07,23,3.20
2018,11,27,07,24,3.20
2018,11,27,07,25,1.60
2018,11,27,07,26,3.20
2018,11,27,07,27,1.60
2018,11,27,07,28,1.60
2018,11,27,07,30,1.60
2018,11,27,07,31,1.60
2018,11,27,07,32,1.60
2018,11,27,07,33,4.80
2018,11,27,07,34,6.40
2018,11,27,07,35,6.40
2018,11,27,07,36,3.20
2018,11,27,07,37,1.60
2018,11,27,07,38,3.20
2018,11,27,07,39,3.20
2018,11,27,07,40,3.20
2018,11,27,07,41,4.80
2018,11,27,07,42,4.80
2018,11,27,07,43,1.60
2018,11,27,07,44,3.20
2018,11,27,07,45,3.20
2018,11,27,07,46,1.60
2018,11,27,07,48,1.60
2018,11,27,07,49,1.60
2018,11,27,07,52,1.60
2018,11,27,07,53,1.60
2018,11,27,07,55,3.20
2018,11,27,07,56,3.20
2018,11,27,07,57,1.60
2018,11,27,07,58,1.60
2018,11,27,07,59,1.60
2018,11,27,08,00,3.20
2018,11,27,08,01,1.60
2018,11,27,08,02,3.20
2018,11,27,08,03,3.20
2018,11,27,08,04,3.20
2018,11,27,08,05,4.80
2018,11,27,08,06,3.20
2018,11,27,08,07,4.80
2018,11,27,08,08,3.20
2018,11,27,08,09,1.60
2018,11,27,08,10,1.60
2018,11,27,08,12,3.20
2018,11,27,08,13,4.80
2018,11,27,08,14,1.60
2018,11,27,08,22,3.20
2018,11,27,08,23,3.20
2018,11,27,08,24,3.20
2018,11,27,08,25,6.40
2018,11,27,08,26,4.80
2018,11,27,08,27,4.80
2018,11,27,08,28,1.60
2018,11,27,08,30,1.60
2018,11,27,08,31,1.60
2018,11,27,08,32,3.20
2018,11,27,08,33,1.60
2018,11,27,08,34,1.60
2018,11,27,08,35,3.20
2018,11,27,08,36,1.60
2018,11,27,08,37,1.60
2018,11,27,08,39,1.60
2018,11,27,08,40,1.60
2018,11,27,08,44,1.60
2018,11,27,08,45,1.60
2018,11,27,08,46,1.60
2018,11,27,09,00,3.20
2018,11,27,09,01,1.60
2018,11,27,09,04,1.60
2018,11,27,09,05,1.60
2018,11,27,09,06,1.60
2018,11,27,09,09,4.80
2018,11,27,09,10,3.20
2018,11,27,09,11,3.20
2018,11,27,09,12,4.80
2018,11,27,09,13,3.20
2018,11,27,09,14,3.20
2018,11,27,09,15,6.40
2018,11,27,09,16,3.20
2018,11,27,09,17,6.40
2018,11,27,09,18,6.40
2018,11,27,09,19,6.40
2018,11,27,09,20,3.20
2018,11,27,09,21,4.80
2018,11,27,09,22,3.20
2018,11,27,09,23,6.40
2018,11,27,09,24,3.20
2018,11,27,09,25,3.20
2018,11,27,09,26,1.60
2018,11,27,09,27,3.20
2018,11,27,09,28,4.80
2018,11,27,09,29,3.20
2018,11,27,09,30,1.60
2018,11,27,09,31,1.60
2018,11,27,09,32,3.20
2018,11,27,09,33,4.80
2018,11,27,09,34,3.20
2018,11,27,09,35,3.20
2018,11,27,09,36,4.80
2018,11,27,09,37,3.20
2018,11,27,09,38,1.60
2018,11,27,09,39,4.80
2018,11,27,09,40,4.80
2018,11,27,09,41,1.60
2018,11,27,09,42,4.80
2018,11,27,09,43,3.20
2018,11,27,09,44,3.20
2018,11,27,09,45,3.20
2018,11,27,09,46,1.60
2018,11,27,09,47,1.60
2018,11,27,09,48,1.60
2018,11,27,09,53,1.60
2018,11,27,09,54,1.60
2018,11,27,09,55,3.20
2018,11,27,09,56,4.80
2018,11,27,09,57,3.20
2018,11,27,09,58,1.60
2018,11,27,10,10,1.60
2018,11,27,10,11,1.60
2018,11,27,10,17,1.60
2018,11,27,10,49,3.20
2018,11,27,10,50,1.60
2018,11,27,11,02,1.60
2018,11,27,11,03,1.60
2018,11,27,11,08,1.60
2018,11,27,11,09,1.60
2018,11,27,11,10,1.60
2018,11,27,11,12,1.60
2018,11,27,11,13,1.60
2018,11,27,11,14,3.20
2018,11,27,11,15,1.60
2018,11,27,11,30,1.60
2018,11,27,11,37,1.60
2018,11,27,11,38,1.60
2018,11,27,11,42,1.60
2018,11,27,11,43,1.60
2018,11,27,11,53,1.60
2018,11,27,11,54,1.60
2018,11,27,11,55,3.20
2018,11,27,11,56,1.60
2018,11,27,11,57,1.60
2018,11,27,11,58,1.60
2018,11,27,12,02,1.60
2018,11,27,12,03,1.60
2018,11,27,12,05,1.60
2018,11,27,12,06,1.60
2018,11,27,12,07,1.60
2018,11,27,12,14,1.60
2018,11,27,12,15,1.60
2018,11,27,12,17,1.60
2018,11,27,12,27,1.60
2018,11,27,13,07,1.60
2018,11,27,13,08,1.60
2018,11,27,13,09,1.60
2018,11,27,13,10,1.60
2018,11,27,13,14,1.60
2018,11,27,13,15,1.60
2018,11,27,13,16,1.60
2018,11,27,13,17,1.60
2018,11,27,13,27,1.60
2018,11,27,13,28,1.60
2018,11,27,13,29,1.60
2018,11,27,13,45,1.60
2018,11,27,13,46,1.60
2018,11,27,13,47,3.20
2018,11,27,13,48,3.20
2018,11,27,13,49,3.20
2018,11,27,13,50,1.60
2018,11,27,13,51,1.60
2018,11,27,13,52,1.60
2018,11,27,13,55,3.20
2018,11,27,13,56,1.60
2018,11,27,13,57,1.60
2018,11,27,14,00,3.20
2018,11,27,14,01,3.20
2018,11,27,14,02,3.20
2018,11,27,14,03,3.20
2018,11,27,14,04,3.20
2018,11,27,14,05,1.60
2018,11,27,14,06,1.60
2018,11,27,14,07,1.60
2018,11,27,14,08,1.60
2018,11,27,14,09,1.60
2018,11,27,14,10,1.60
2018,11,27,14,11,1.60
2018,11,27,14,12,1.60
2018,11,27,14,19,1.60
2018,11,27,14,29,1.60
2018,11,27,14,43,3.20
2018,11,27,14,44,1.60
2018,11,27,14,45,1.60
2018,11,27,15,46,1.60
2018,11,27,15,47,1.60
2018,11,27,15,50,1.60
2018,11,27,15,51,1.60
2018,11,27,15,52,1.60
2018,11,27,15,53,1.60
2018,11,27,15,54,1.60
2018,11,27,15,55,3.20
2018,11,27,15,56,1.60
2018,11,27,15,58,1.60
2018,11,27,15,59,1.60
2018,11,27,16,02,1.60
2018,11,27,16,03,3.20
2018,11,27,16,04,1.60
2018,11,27,16,07,1.60
2018,11,27,16,08,3.20
2018,11,27,16,09,1.60
2018,11,27,16,10,3.20
2018,11,27,16,11,3.20
2018,11,27,16,12,3.20
2018,11,27,16,13,1.60
2018,11,27,16,14,3.20
2018,11,27,16,15,3.20
2018,11,27,16,16,3.20
2018,11,27,16,17,1.60
2018,11,27,16,18,1.60
2018,11,27,16,28,3.20
2018,11,27,16,29,1.60
2018,11,27,16,30,3.20
2018,11,27,16,31,3.20
2018,11,27,16,32,3.20
2018,11,27,16,33,1.60
2018,11,27,16,34,1.60
2018,11,27,16,35,3.20
2018,11,27,16,36,1.60
2018,11,27,16,37,1.60
2018,11,27,16,38,1.60
2018,11,27,16,41,1.60
2018,11,27,16,42,1.60
2018,11,27,16,43,1.60
2018,11,27,16,44,3.20
2018,11,27,16,45,1.60
2018,11,27,16,46,3.20
2018,11,27,16,47,1.60
2018,11,27,16,48,1.60
2018,11,27,16,49,1.60
2018,11,27,16,50,1.60
2018,11,27,16,51,1.60
2018,11,27,16,52,3.20
2018,11,27,16,53,3.20
2018,11,27,16,54,3.20
2018,11,27,16,55,3.20
2018,11,27,16,56,3.20
2018,11,27,16,57,3.20
2018,11,27,16,58,1.60
2018,11,27,16,59,3.20
2018,11,27,17,00,3.20
2018,11,27,17,01,1.60
2018,11,27,17,02,1.60
2018,11,27,17,03,1.60
2018,11,27,17,05,1.60
2018,11,27,17,06,1.60
2018,11,27,17,07,3.20
2018,11,27,17,11,1.60
2018,11,27,17,12,1.60
2018,11,27,17,13,3.20
2018,11,27,17,14,1.60
2018,11,27,17,15,3.20
2018,11,27,17,16,1.60
2018,11,27,17,17,1.60
2018,11,27,17,18,1.60
2018,11,27,17,19,3.20
2018,11,27,17,20,3.20
2018,11,27,17,21,3.20
2018,11,27,17,22,3.20
2018,11,27,17,23,3.20
2018,11,27,17,24,3.20
2018,11,27,17,25,3.20
2018,11,27,17,26,1.60
2018,11,27,17,27,3.20
2018,11,27,17,28,3.20
2018,11,27,17,29,3.20
2018,11,27,17,30,3.20
2018,11,27,17,31,1.60
2018,11,27,17,32,1.60
2018,11,27,17,33,1.60
2018,11,27,17,34,1.60
2018,11,27,17,35,1.60
2018,11,27,17,36,1.60
2018,11,27,17,37,1.60
2018,11,27,17,38,1.60
2018,11,27,17,39,1.60
2018,11,27,17,41,1.60
2018,11,27,17,42,1.60
2018,11,27,17,43,1.60
2018,11,27,17,53,1.60
2018,11,27,18,12,1.60
2018,11,27,18,24,1.60
2018,11,27,18,25,1.60
2018,11,27,18,26,1.60
2018,11,27,18,43,1.60
2018,11,27,18,44,1.60
2018,11,27,18,48,1.60
2018,11,27,18,49,3.20
2018,11,27,18,50,3.20
2018,11,27,18,51,3.20
2018,11,27,18,52,3.20
2018,11,27,18,53,1.60
2018,11,27,18,54,3.20
2018,11,27,18,55,3.20
2018,11,27,18,56,3.20
2018,11,27,18,57,3.20
2018,11,27,18,58,3.20
2018,11,27,18,59,1.60
2018,11,27,19,00,1.60
2018,11,27,19,05,1.60
2018,11,27,19,06,1.60
2018,11,27,19,36,1.60
2018,11,27,20,13,1.60
2018,11,27,20,14,1.60
2018,11,27,20,15,1.60
2018,11,27,21,07,3.20
2018,11,27,21,08,1.60
2018,11,27,21,43,1.60
2018,11,27,21,44,1.60
2018,11,27,22,18,3.20
2018,11,27,22,19,1.60
2018,11,27,22,21,1.60
2018,11,27,22,22,1.60
2018,11,27,22,25,1.60
2018,11,27,22,28,1.60
2018,11,27,22,40,3.20
2018,11,27,22,41,3.20
2018,11,27,22,42,1.60
2018,11,27,22,43,1.60
2018,11,27,22,44,1.60
2018,11,27,22,47,1.60
2018,11,27,22,56,1.60
2018,11,27,22,57,1.60
2018,11,27,22,59,4.80
2018,11,27,23,00,1.60
2018,11,27,23,01,3.20
2018,11,27,23,02,3.20
2018,11,27,23,03,8.10
2018,11,27,23,04,3.20
2018,11,27,23,05,3.20
2018,11,27,23,06,3.20
2018,11,27,23,07,3.20
2018,11,27,23,08,3.20
2018,11,27,23,09,3.20
2018,11,27,23,10,3.20
2018,11,27,23,11,3.20
2018,11,27,23,12,8.10
2018,11,27,23,13,6.40
2018,11,27,23,14,4.80
2018,11,27,23,15,3.20
2018,11,27,23,16,4.80
2018,11,27,23,17,3.20
2018,11,27,23,18,3.20
2018,11,27,23,19,1.60
2018,11,27,23,20,1.60
2018,11,27,23,21,1.60
2018,11,27,23,22,3.20
2018,11,27,23,23,3.20
2018,11,27,23,24,3.20
2018,11,27,23,25,6.40
2018,11,27,23,26,3.20
2018,11,27,23,27,3.20
2018,11,27,23,28,3.20
2018,11,27,23,29,4.80
2018,11,27,23,30,3.20
2018,11,27,23,31,1.60
2018,11,27,23,32,4.80
2018,11,27,23,33,4.80
2018,11,27,23,34,4.80
2018,11,27,23,35,3.20
2018,11,27,23,36,6.40
2018,11,27,23,37,6.40
2018,11,27,23,38,6.40
2018,11,27,23,39,4.80
2018,11,27,23,40,3.20
2018,11,27,23,41,3.20
2018,11,27,23,42,6.40
2018,11,27,23,43,3.20
2018,11,27,23,44,9.60
2018,11,27,23,45,6.40
2018,11,27,23,46,4.80
2018,11,27,23,47,6.40
2018,11,27,23,48,6.40
2018,11,27,23,49,6.40
2018,11,27,23,50,4.80
2018,11,27,23,51,4.80
2018,11,27,23,52,4.80
2018,11,27,23,53,4.80
2018,11,27,23,54,6.40
2018,11,27,23,55,3.20
2018,11,27,23,56,4.80
2018,11,27,23,57,3.20
2018,11,27,23,58,3.20
2018,11,27,23,59,1.60
